EW6956 Weather Reports


time (UTC)temp
F
wind
direction
speed
knots
gust
knots
rain 1hr
in
rain 24hr
in
rain mn
in
humidity
%
barometer
mb
20260906154551 89 153 0.0 0.0 0.00 0.00 0.00 58 1012.3
20260906153108 87 153 0.0 0.0 0.00 0.00 0.00 58 1012.2
20260906151552 85 153 0.0 0.0 0.00 0.00 0.00 57 1012.2
20260906150036 83 135 0.0 0.0 0.00 0.00 0.00 52 1012.4
20260906144532 81 135 0.0 0.0 0.00 0.00 0.00 41 1012.4
20260906143035 80 135 0.0 0.0 0.00 0.00 0.00 40 1012.5
20260906141521 79 135 0.0 0.0 0.00 0.00 0.00 32 1012.9
20260906140023 79 135 0.0 0.0 0.00 0.00 0.00 28 1012.7
20260906134514 77 135 0.0 0.0 0.00 0.00 0.00 11 1012.6
20260906133021 75 135 0.0 0.0 0.00 0.00 0.00 1 1012.6
20260906131503 73 136 0.0 0.0 0.00 0.00 0.00 1 1012.6
20260906130100 72 136 0.0 0.0 0.00 0.00 0.00 1 1012.5
20260906124555 71 138 0.0 0.0 0.00 0.00 0.00 1 1012.4
20260906123057 70 138 0.0 0.0 0.00 0.00 0.00 1 1012.4
20260906121546 70 138 0.0 0.0 0.00 0.00 0.00 1 1012.1
20260906120041 69 142 0.0 0.0 0.00 0.00 0.00 1 1012.0
20260906114537 70 142 0.0 0.0 0.00 0.00 0.00 1 1011.9
20260906113034 70 142 0.0 0.0 0.00 0.00 0.00 1 1011.9
20260906111531 70 142 0.0 0.0 0.00 0.00 0.00 1 1011.7
20260906110024 70 142 0.0 0.0 0.00 0.00 0.00 1 1011.7
20260906104520 70 142 0.0 0.0 0.00 0.00 0.00 1 1011.6
20260906103015 70 142 0.0 0.0 0.00 0.00 0.00 1 1011.5
20260906101520 71 142 0.0 0.0 0.00 0.00 0.00 1 1011.3
20260906100007 71 142 0.0 0.0 0.00 0.00 0.00 1 1011.2
20260906094501 71 142 0.0 0.0 0.00 0.00 0.00 1 1011.2
20260906093100 71 142 0.0 0.0 0.00 0.00 0.00 1 1011.2
20260906091553 71 142 0.0 0.0 0.00 0.00 0.00 1 1011.1
20260906090100 71 142 0.0 0.0 0.00 0.00 0.00 1 1010.9
20260906084545 71 142 0.0 0.0 0.00 0.00 0.00 1 1010.9
20260906083040 71 142 0.0 0.0 0.00 0.00 0.00 1 1010.7
20260906081535 72 142 0.0 0.0 0.00 0.00 0.00 1 1010.7
20260906080031 72 142 0.0 0.0 0.00 0.00 0.00 1 1010.8
20260906074527 72 142 0.0 0.0 0.00 0.00 0.00 1 1010.8
20260906073022 73 142 0.0 0.0 0.00 0.00 0.00 1 1010.9
20260906071518 73 142 0.0 0.0 0.00 0.00 0.00 1 1011.0
20260906070014 73 142 0.0 0.0 0.00 0.00 0.00 1 1011.0
20260906064509 73 142 0.0 0.0 0.00 0.00 0.00 1 1011.1
20260906063005 73 142 0.0 0.0 0.00 0.00 0.00 1 1011.1
20260906061605 73 142 0.0 0.0 0.00 0.00 0.00 1 1011.1
20260906060056 74 142 0.0 0.0 0.00 0.00 0.00 1 1010.8
20260906054552 74 142 0.0 0.0 0.00 0.00 0.00 3 1010.9
20260906053049 74 142 0.0 0.0 0.00 0.00 0.00 4 1010.8
20260906051557 74 142 0.0 0.0 0.00 0.00 0.00 7 1010.6
20260906050053 75 142 0.0 0.0 0.00 0.00 0.00 17 1010.6
20260906044547 75 142 0.0 0.0 0.00 0.00 0.00 20 1010.4
20260906043041 76 142 0.0 0.0 0.00 0.00 0.00 26 1010.4
20260906041529 77 142 0.0 0.0 0.00 0.00 0.00 31 1010.4
20260906040033 77 142 0.0 0.0 0.00 0.00 0.00 35 1010.4
20260906034526 77 142 0.0 0.0 0.00 0.00 0.00 35 1010.4
20260906033016 77 142 0.0 0.0 0.00 0.00 0.00 35 1010.4
20260906031514 77 142 0.0 0.0 0.00 0.00 0.00 38 1010.4
20260906030007 78 326 0.0 0.0 0.00 0.00 0.00 43 1010.4
20260906024503 79 326 0.0 0.0 0.00 0.00 0.00 47 1010.2
20260906023059 79 326 0.0 0.0 0.00 0.00 0.00 50 1009.8
20260906021554 80 326 0.0 0.0 0.00 0.00 0.00 54 1009.6
20260906020058 81 326 0.0 0.0 0.00 0.00 0.00 56 1009.1
20260906014546 82 326 0.0 0.0 0.00 0.00 0.00 57 1009.0
20260906013058 82 326 0.0 0.0 0.00 0.00 0.00 59 1008.9
20260906011546 83 326 0.0 0.0 0.00 0.00 0.00 60 1008.8
20260906010035 85 326 0.0 0.0 0.00 0.00 0.00 60 1008.4
20260906004531 87 100 0.0 0.0 0.00 0.00 0.00 60 1008.3
20260906003026 89 100 0.0 0.0 0.00 0.00 0.00 58 1008.2
20260906001522 91 98 0.0 0.0 0.00 0.00 0.00 54 1008.3
20260906000016 92 112 0.0 0.9 0.00 0.00 0.00 54 1008.3
20260905234512 94 119 0.0 0.0 0.00 0.00 0.00 52 1008.5
20260905233009 95 119 0.0 0.0 0.00 0.00 0.00 45 1008.3
20260905231503 97 119 0.0 0.0 0.00 0.00 0.00 43 1008.4
20260905230104 98 119 0.0 0.0 0.00 0.00 0.00 40 1008.3
20260905224555 99 119 0.0 0.0 0.00 0.00 0.00 38 1008.2
20260905223052 100 119 0.0 0.0 0.00 0.00 0.00 37 1008.2
20260905221548 101 118 0.0 0.0 0.00 0.00 0.00 33 1008.2
20260905220041 101 125 0.0 0.0 0.00 0.00 0.00 37 1008.2
20260905214536 102 63 0.0 0.0 0.00 0.00 0.00 33 1008.3
20260905213032 102 228 0.0 0.0 0.00 0.00 0.00 33 1008.5
20260905211527 102 205 0.0 0.0 0.00 0.00 0.00 32 1008.7
20260905210037 101 284 0.0 0.0 0.00 0.00 0.00 32 1009.1
20260905204518 101 261 0.0 0.0 0.00 0.00 0.00 33 1009.3
20260905203013 101 200 0.0 0.0 0.00 0.00 0.00 35 1009.4
20260905201509 100 178 0.0 0.0 0.00 0.00 0.00 35 1009.7
20260905200005 100 205 0.0 0.0 0.00 0.00 0.00 36 1009.9
20260905194601 100 252 0.0 0.0 0.00 0.00 0.00 38 1010.1
20260905193056 100 250 0.0 0.0 0.00 0.00 0.00 39 1010.4
20260905191551 100 57 0.0 0.0 0.00 0.00 0.00 39 1010.6
20260905190047 99 101 0.0 0.0 0.00 0.00 0.00 40 1010.9
20260905184546 98 206 0.0 3.5 0.00 0.00 0.00 42 1011.1
20260905183039 98 207 0.0 0.0 0.00 0.00 0.00 42 1011.4
20260905181533 99 275 0.0 0.0 0.00 0.00 0.00 43 1011.6
20260905180029 98 19 0.0 0.0 0.00 0.00 0.00 43 1011.8
20260905174525 98 338 0.0 0.0 0.00 0.00 0.00 42 1011.9
20260905173020 97 162 0.0 0.0 0.00 0.00 0.00 45 1012.1
20260905171526 96 246 0.0 0.0 0.00 0.00 0.00 48 1012.3
20260905170012 96 160 0.0 0.0 0.00 0.00 0.00 47 1012.5
20260905164506 95 116 0.0 0.0 0.00 0.00 0.00 49 1012.7
20260905163002 94 281 0.0 0.0 0.00 0.00 0.00 51 1012.8
20260905161558 93 119 0.0 0.0 0.00 0.00 0.00 55 1012.8